Header for Extended Forecast Station List Page

Search by: ID | Name | Date | Parm | Value | Avg | % Avg
Sort by: ID | Name | Date | Parm | Value | Avg | % Avg

Enter search or view all records.

Click on id for station plot
#IDNameDateParmValueAvg% Avg
0LEOI1KOOTENAI-AT LEONIA06-14-2021DISCHARGE (KAF)1867350853
1FCFM8NF FLATHEAD-NEAR COLUMBIA FALLS06-14-2021DISCHARGE (KAF)48175364
2WGCM8MF FLATHEAD-NEAR WEST GLACIER06-14-2021DISCHARGE (KAF)45670465
3CFMM8FLATHEAD-AT COLUMBIA FALLS06-14-2021DISCHARGE (KAF)1606221273
4DLGM8CLARK FORK-AT DEER LODGE06-14-2021DISCHARGE (KAF)234848
5DRMM8CLARK FORK-NR DRUMMOND06-14-2021DISCHARGE (KAF)82MM
6RCCM8ROCK CREEK-NEAR CLINTON06-14-2021DISCHARGE (KAF)10513876
7BONM8BLACKFOOT-NEAR BONNER06-14-2021DISCHARGE (KAF)31636986
8ABOM8CLARK FORK-ABOVE MISSOULA06-14-2021DISCHARGE (KAF)53069676
9BITM8BITTERROOT-NEAR MISSOULA06-14-2021DISCHARGE (KAF)30356054
10BELM8CLARK FORK-BELOW MISSOULA06-14-2021DISCHARGE (KAF)829128664
11STRM8ST. REGIS-NEAR ST. REGIS06-14-2021DISCHARGE (KAF)426465
12SRGM8CLARK FORK-AT ST REGIS06-14-2021DISCHARGE (KAF)1048166763
13PRTI1PRIEST-NEAR PRIEST RIVER06-14-2021DISCHARGE (KAF)20824984
14SPOW1SPOKANE-AT SPOKANE06-14-2021DISCHARGE (KAF)353MM
15SATI1ST MARIES-NEAR SANTA06-14-2021DISCHARGE (KAF)202870
16CIBW1COLUMBIA-AT INTL BOUNDARY06-14-2021DISCHARGE (KAF)21049MM
17LAUW1KETTLE-AT LAURIER06-14-2021DISCHARGE (KAF)22750745
18TONW1OKANOGAN-NEAR TONASKET06-14-2021DISCHARGE (KAF)46766670
19PATW1METHOW-NEAR PATEROS06-14-2021DISCHARGE (KAF)27036075
20ARDW1ENTIAT-NEAR ARDENVOIR06-14-2021DISCHARGE (KAF)769778
21PESW1WENATCHEE-AT PESHASTIN06-14-2021DISCHARGE (KAF)60867690
22EASW1YAKIMA-AT EASTON06-14-2021DISCHARGE (KAF)8079102
23TNAW1TEANAWAY-BELOW FORKS06-14-2021DISCHARGE (KAF)2318134
24UMTW1YAKIMA-AT UMTANUM06-14-2021DISCHARGE (KAF)721713101
25CLFW1NACHES-NEAR CLIFFDEL06-14-2021DISCHARGE (KAF)14115293
26NACW1NACHES-NEAR NACHES06-14-2021DISCHARGE (KAF)21823792
27PARW1YAKIMA-NEAR PARKER06-14-2021DISCHARGE (KAF)12213193
28KIOW1YAKIMA-AT KIONA06-14-2021DISCHARGE (KAF)43245794
29CHEI1FALL RIVER-NEAR CHESTER06-14-2021DISCHARGE (KAF)4213032
30ANTI1HENRYS FORK-AT ST. ANTHONY06-14-2021DISCHARGE (KAF)23636066
31TEAI1TETON-NEAR ST. ANTHONY06-14-2021DISCHARGE (KAF)16324666
32REXI1HENRYS FORK-AT REXBURG06-14-2021DISCHARGE (KAF)23242255
33JKSW4SNAKE-NEAR JACKSON06-14-2021DISCHARGE (KAF)823132862
34ALPW4SNAKE-NEAR ALPINE06-14-2021DISCHARGE (KAF)977161960
35HEII1SNAKE-NEAR HEISE06-14-2021DISCHARGE (KAF)2333246895
36SIFI1SNAKE-AB EAGLE ROCK NR IDAHO FALLS06-14-2021DISCHARGE (KAF)1329169778
37SHYI1SNAKE-NEAR SHELLEY06-14-2021DISCHARGE (KAF)1155136085
38SNAI1SNAKE-AT BLACKFOOT06-14-2021DISCHARGE (KAF)59285969
39BFTI1SNAKE-NEAR BLACKFOOT06-14-2021DISCHARGE (KAF)57078273
40PIHI1PORTNEUF-AT POCATELLO06-14-2021DISCHARGE (KAF)92437
41MILI1SNAKE-AT MILNER06-14-2021DISCHARGE (KAF)M80M
42HOTI1BRUNEAU-NEAR HOT SPRINGS06-14-2021DISCHARGE (KAF)74915
43SWAI1SNAKE-BELOW SWAN FALLS06-14-2021DISCHARGE (KAF)1421196272
44HWRI1BIG LOST-AT HOWELL RANCH NEAR CHILLY06-14-2021DISCHARGE (KAF)3010030
45HALI1BIG WOOD-AT HAILEY06-14-2021DISCHARGE (KAF)4512636
46BIGI1BOISE-AT GLENWOOD BRIDGE06-14-2021DISCHARGE (KAF)18423777
47PARI1BOISE-NEAR PARMA06-14-2021DISCHARGE (KAF)18723779
48EMMI1PAYETTE-NEAR EMMETT06-14-2021DISCHARGE (KAF)32860954
49WSRI1WEISER-NEAR WEISER06-14-2021DISCHARGE (KAF)548465
50WEII1SNAKE-AT WEISER06-14-2021DISCHARGE (KAF)2180309870
51WHBI1SALMON-AT WHITEBIRD06-14-2021DISCHARGE (KAF)1402275551
52TRYO3GRANDE RONDE-TROY06-14-2021DISCHARGE (KAF)28739972
53ANAW1SNAKE-NEAR ANATONE06-14-2021DISCHARGE (KAF)4376674265
54ORFI1CLEARWATER-AT OROFINO06-14-2021DISCHARGE (KAF)712138851
55SPDI1CLEARWATER-AT SPALDING06-14-2021DISCHARGE (KAF)23182277102
56TCHW1WALLA WALLA-NEAR TOUCHET06-14-2021DISCHARGE (KAF)31027
57GIBO3UMATILLA-NEAR GIBBON06-14-2021DISCHARGE (KAF)121585
58PDTO3UMATILLA-AT PENDLETON06-14-2021DISCHARGE (KAF)131681
59MYKO3MCKAY CREEK-NEAR PILOT ROCK06-14-2021DISCHARGE (KAF)0150
60UMAO3UMATILLA-NEAR UMATILLA06-14-2021DISCHARGE (KAF)3931407
61MONO3NF JOHN DAY-AT MONUMENT06-14-2021DISCHARGE (KAF)428351
62SERO3JOHN DAY-AT SERVICE CK06-14-2021DISCHARGE (KAF)5311944
63MODO3DESCHUTES-AT MOODY NR BIGGS06-14-2021DISCHARGE (KAF)1062110696
64PITW1KLICKITAT-NEAR PITT06-14-2021DISCHARGE (KAF)17524073
65HODO3HOOD-NEAR TUCKER BRIDGE06-14-2021DISCHARGE (KAF)8710285
66UNDW1WHITE SALMON-NEAR UNDERWOOD06-14-2021DISCHARGE (KAF)15218881
67LYDM8KOOTENAI-LIBBY DAM06-14-2021INFLOW (KAF)2590372270
68HHWM8SF FLATHEAD-HUNGRY HORSE DAM06-14-2021INFLOW (KAF)48673067
69KERM8FLATHEAD-SELI’Š KSANKA QLISPE’ DAM06-14-2021INFLOW (KAF)1802270567
70NOXM8CLARK FORK-NOXON RAPIDS DAM06-14-2021INFLOW (KAF)3377484070
71CABI1CLARK FORK-CABINET GORGE DAM06-14-2021INFLOW (KAF)3712517972
72ALFW1PEND OREILLE-ALBENI FALLS DAM06-14-2021INFLOW (KAF)3792561668
73COEI1COEUR D ALENE-COEUR D ALENE LAKE06-14-2021INFLOW (KAF)29445065
74LLKW1SPOKANE-AT LONGLAKE06-14-2021INFLOW (KAF)50680463
75GCDW1COLUMBIA-GRAND COULEE DAM06-14-2021INFLOW (KAF)218373158069
76CHJW1COLUMBIA-CHIEF JOSEPH DAM06-14-2021INFLOW (KAF)216202558085
77WELW1COLUMBIA-WELLS DAM06-14-2021INFLOW (KAF)223632683883
78CHDW1CHELAN-LAKE CHELAN DAM06-14-2021INFLOW (KAF)51054793
79RRHW1COLUMBIA-ROCKY REACH DAM06-14-2021INFLOW (KAF)228692745683
80WANW1COLUMBIA-WANAPUM DAM06-14-2021INFLOW (KAF)235493207273
81PRWW1COLUMBIA-PRIEST RAPIDS DAM06-14-2021INFLOW (KAF)235543268872
82KEDW1YAKIMA-KEECHELUS LAKE06-14-2021INFLOW (KAF)4536123
83KADW1KACHESS-KACHESS DAM06-14-2021INFLOW (KAF)4429150
84CLUW1CLE ELUM-CLE ELUM LAKE06-14-2021INFLOW (KAF)206152136
85BUDW1BUMPING-BUMPING LAKE DAM06-14-2021INFLOW (KAF)274856
86RILW1TIETON-RIMROCK LAKE NEAR RIMROCK06-14-2021INFLOW (KAF)10710998
87IPDI1HENRYS FORK-ISLAND PARK DAM06-14-2021INFLOW (KAF)10816466
88JLKW4SNAKE-JACKSON LAKE AT DAM06-14-2021INFLOW (KAF)17042140
89PLDI1SF SNAKE-PALISADES DAM06-14-2021INFLOW (KAF)1259216858
90RIDI1WILLOW CREEK-RIRIE DAM06-14-2021INFLOW (KAF)1719
91AFRI1SNAKE-AMERICAN FALLS RESERVOIR06-14-2021INFLOW (KAF)1108142278
92MACI1BIG LOST-MACKAY RESERVOIR NEAR MACKAY06-14-2021INFLOW (KAF)318836
93MAGI1BIG WOOD-MAGIC DAM06-14-2021INFLOW (KAF)87910
94LWRI1LITTLE WOOD-LITTLE WOOD DAM06-14-2021INFLOW (KAF)72625
95OWYO3OWYHEE-OWYHEE DAM06-14-2021INFLOW (KAF)336154
96ARAI1SF BOISE-ANDERSON RANCH DAM06-14-2021INFLOW (KAF)6216937
97LUCI1BOISE-LUCKY PEAK DAM06-14-2021INFLOW (KAF)544MM
98WRMO3MALHEUR-WARM SPRINGS DAM06-14-2021INFLOW (KAF)22105
99BERO3MALHEUR-AGENCY VALLEY DAM06-14-2021INFLOW (KAF)7974
100BULO3BULLY CREEK-BULLY CREEK DAM06-14-2021INFLOW (KAF)M0M
101CSDI1NF PAYETTE-CASCADE DAM06-14-2021INFLOW (KAF)5914241
102DEDI1DEADWOOD-NEAR LOWMAN06-14-2021INFLOW (KAF)185236
103BRNI1SNAKE-BROWNLEE DAM06-14-2021INFLOW (KAF)2306320872
104DWRI1NF CLEARWATER-DWORSHAK DAM06-14-2021INFLOW (KAF)47175662
105LGDW1SNAKE-LOWER GRANITE DAM06-14-2021INFLOW (KAF)6694908374
106LGSW1SNAKE-LITTLE GOOSE DAM06-14-2021INFLOW (KAF)6632910673
107LMNW1SNAKE-LOWER MONUMENTAL DAM06-14-2021INFLOW (KAF)6687912273
108IHDW1SNAKE-ICE HARBOR DAM06-14-2021INFLOW (KAF)6699905474
109MCDW1COLUMBIA-MCNARY DAM06-14-2021INFLOW (KAF)308114281872
110JDAO3COLUMBIA-JOHN DAY DAM06-14-2021INFLOW (KAF)313274345672
111TDAO3COLUMBIA-THE DALLES DAM06-14-2021INFLOW (KAF)317453988280
112BONO3COLUMBIA-BONNEVILLE DAM06-14-2021INFLOW (KAF)321704096579
113HOPI1PEND OREILLE-PEND OREILLE LAKE NR HOPE06-14-2021LAKE ELEVATION (FT)MMM
114BFEI1KOOTENAI-AT BONNERS FERRY06-14-2021STAGE (FT)MMM
115SJMI1ST JOE-AT ST MARIES06-14-2021STAGE (FT)MMM